UAL265 KBOS-KIAD

Flight info

Callsign UAL265
Flight time 1h 21m
Altitude 36000
Route BLZZR6 BLZZR BAF HYPER9
Aircraft B739/M-SDE2E3FGHIRWXY/LB1

Departure

Time 2026-05-07 18:47
Airport Boston Logan International Airport (KBOS)

Arrival

Time 2026-05-07 20:08
Airport Washington Dulles International Airport (KIAD)
Time Latitude Longitude Altitude Speed Heading
2026-05-07 18:25 42.36609 -71.01364 25 ft 0 kts 289°
2026-05-07 18:37 42.36608 -71.01359 25 ft 3 kts 289°
2026-05-07 18:38 42.36601 -71.01335 28 ft 3 kts 289°
2026-05-07 18:38 42.36595 -71.01311 30 ft 3 kts 289°
2026-05-07 18:38 42.36589 -71.01288 28 ft 3 kts 289°
2026-05-07 18:38 42.36583 -71.01265 29 ft 3 kts 289°
2026-05-07 18:39 42.36582 -71.01262 29 ft 0 kts 289°
2026-05-07 18:40 42.36582 -71.01272 29 ft 6 kts 265°
2026-05-07 18:41 42.36508 -71.01339 26 ft 20 kts 204°
2026-05-07 18:41 42.36376 -71.01387 26 ft 18 kts 158°
2026-05-07 18:41 42.36333 -71.01313 29 ft 0 kts 120°
2026-05-07 18:42 42.36324 -71.01292 28 ft 9 kts 120°
2026-05-07 18:42 42.36266 -71.01154 27 ft 24 kts 117°
2026-05-07 18:42 42.36185 -71.00920 26 ft 27 kts 114°
2026-05-07 18:42 42.36115 -71.00695 25 ft 25 kts 110°
2026-05-07 18:43 42.36060 -71.00478 25 ft 24 kts 109°
2026-05-07 18:43 42.36008 -71.00276 24 ft 23 kts 109°
2026-05-07 18:43 42.35997 -71.00234 27 ft 0 kts 109°
2026-05-07 18:43 42.35994 -71.00218 26 ft 6 kts 109°
2026-05-07 18:44 42.35964 -71.00115 26 ft 17 kts 117°
2026-05-07 18:44 42.35868 -70.99950 24 ft 27 kts 135°
2026-05-07 18:44 42.35756 -70.99804 24 ft 5 kts 136°
2026-05-07 18:44 42.35701 -70.99733 24 ft 16 kts 136°
2026-05-07 18:45 42.35593 -70.99591 27 ft 27 kts 136°
2026-05-07 18:45 42.35490 -70.99425 26 ft 21 kts 98°
2026-05-07 18:45 42.35495 -70.99381 24 ft 0 kts 71°
2026-05-07 18:46 42.35499 -70.99366 24 ft 6 kts 71°
2026-05-07 18:46 42.35553 -70.99296 25 ft 16 kts 345°
2026-05-07 18:46 42.35641 -70.99405 26 ft 28 kts 315°
2026-05-07 18:47 42.35975 -70.99857 26 ft 107 kts 315°
2026-05-07 18:47 42.36660 -71.00770 60 ft 165 kts 313°
2026-05-07 18:47 42.37564 -71.01903 542 ft 186 kts 316°
2026-05-07 18:47 42.38565 -71.03075 1292 ft 194 kts 312°
2026-05-07 18:48 42.39228 -71.04574 2394 ft 187 kts 296°
2026-05-07 18:48 42.39852 -71.06222 2753 ft 209 kts 298°
2026-05-07 18:48 42.40564 -71.08030 3173 ft 223 kts 294°
2026-05-07 18:48 42.40889 -71.10116 3586 ft 239 kts 272°
2026-05-07 18:49 42.40626 -71.12390 4236 ft 248 kts 254°
2026-05-07 18:49 42.40027 -71.14609 5031 ft 253 kts 252°
2026-05-07 18:49 42.39400 -71.16854 5855 ft 256 kts 252°
2026-05-07 18:49 42.38770 -71.19114 6686 ft 257 kts 252°
2026-05-07 18:50 42.38149 -71.21352 7661 ft 249 kts 252°
2026-05-07 18:50 42.37551 -71.23511 8693 ft 243 kts 252°
2026-05-07 18:50 42.36967 -71.25634 9645 ft 239 kts 252°
2026-05-07 18:50 42.36586 -71.27024 10177 ft 238 kts 252°
2026-05-07 18:51 42.35995 -71.29184 10567 ft 255 kts 252°
2026-05-07 18:51 42.35353 -71.31532 10732 ft 277 kts 251°
2026-05-07 18:51 42.34655 -71.34073 10904 ft 298 kts 251°
2026-05-07 18:51 42.33893 -71.36767 11072 ft 317 kts 250°
2026-05-07 18:52 42.33025 -71.39611 11299 ft 334 kts 249°
2026-05-07 18:52 42.32108 -71.42546 11819 ft 342 kts 248°
2026-05-07 18:52 42.31182 -71.45506 12571 ft 341 kts 248°
2026-05-07 18:52 42.30265 -71.48447 13330 ft 339 kts 248°
2026-05-07 18:53 42.29352 -71.51379 13955 ft 340 kts 248°
2026-05-07 18:53 42.28431 -71.54347 14424 ft 344 kts 248°
2026-05-07 18:53 42.27501 -71.57346 14892 ft 349 kts 247°
2026-05-07 18:53 42.26571 -71.60342 15417 ft 351 kts 247°
2026-05-07 18:54 42.25626 -71.63387 15946 ft 352 kts 247°
2026-05-07 18:54 42.24676 -71.66447 16433 ft 355 kts 247°
2026-05-07 18:54 42.23714 -71.69537 16903 ft 358 kts 247°
2026-05-07 18:54 42.22744 -71.72650 17380 ft 360 kts 247°
2026-05-07 18:55 42.21829 -71.75819 17822 ft 364 kts 252°
2026-05-07 18:55 42.21438 -71.79207 18242 ft 370 kts 263°
2026-05-07 18:55 42.21286 -71.82677 18693 ft 370 kts 263°
2026-05-07 18:55 42.21122 -71.86138 19197 ft 369 kts 263°
2026-05-07 18:56 42.20949 -71.89591 19705 ft 368 kts 262°
2026-05-07 18:56 42.20769 -71.93038 20209 ft 369 kts 262°
2026-05-07 18:56 42.20583 -71.96498 20647 ft 370 kts 262°
2026-05-07 18:56 42.20393 -71.99959 21063 ft 371 kts 262°
2026-05-07 18:57 42.20200 -72.03438 21437 ft 372 kts 262°
2026-05-07 18:57 42.20007 -72.06907 21938 ft 371 kts 262°
2026-05-07 18:57 42.19812 -72.10375 22373 ft 371 kts 262°
2026-05-07 18:57 42.19617 -72.13811 22745 ft 372 kts 262°
2026-05-07 18:58 42.19419 -72.17300 23114 ft 373 kts 262°
2026-05-07 18:58 42.19219 -72.20794 23478 ft 374 kts 262°
2026-05-07 18:58 42.19019 -72.24295 23814 ft 374 kts 262°
2026-05-07 18:58 42.18817 -72.27786 24125 ft 376 kts 262°
2026-05-07 18:59 42.18611 -72.31326 24359 ft 378 kts 262°
2026-05-07 18:59 42.18404 -72.34874 24718 ft 378 kts 261°
2026-05-07 18:59 42.18198 -72.38403 25109 ft 376 kts 261°
2026-05-07 18:59 42.17991 -72.41924 25446 ft 376 kts 261°
2026-05-07 19:00 42.17783 -72.45444 25721 ft 377 kts 261°
2026-05-07 19:00 42.17576 -72.48928 25977 ft 377 kts 261°
2026-05-07 19:00 42.17366 -72.52441 26300 ft 375 kts 261°
2026-05-07 19:00 42.17157 -72.55934 26704 ft 371 kts 261°
2026-05-07 19:01 42.16949 -72.59380 27172 ft 367 kts 260°
2026-05-07 19:01 42.16742 -72.62794 27619 ft 365 kts 260°
2026-05-07 19:01 42.16431 -72.66177 27848 ft 362 kts 254°
2026-05-07 19:01 42.15737 -72.69411 28210 ft 358 kts 250°
2026-05-07 19:02 42.14892 -72.72540 28706 ft 352 kts 248°
2026-05-07 19:02 42.13930 -72.75553 29213 ft 348 kts 244°
2026-05-07 19:02 42.12717 -72.78355 29681 ft 346 kts 238°
2026-05-07 19:02 42.11353 -72.81007 30120 ft 341 kts 238°
2026-05-07 19:03 42.09999 -72.83596 30595 ft 336 kts 238°
2026-05-07 19:03 42.08652 -72.86162 30830 ft 337 kts 238°
2026-05-07 19:03 42.07298 -72.88744 31024 ft 338 kts 238°
2026-05-07 19:03 42.05942 -72.91332 31277 ft 337 kts 238°
2026-05-07 19:04 42.04613 -72.93868 31624 ft 335 kts 238°
2026-05-07 19:04 42.03271 -72.96423 31900 ft 336 kts 238°
2026-05-07 19:04 42.01910 -72.99020 31905 ft 342 kts 238°
2026-05-07 19:04 42.00535 -73.01653 32015 ft 345 kts 238°
2026-05-07 19:05 41.99156 -73.04291 32238 ft 344 kts 238°
2026-05-07 19:05 41.97783 -73.06914 32552 ft 342 kts 238°
2026-05-07 19:05 41.96417 -73.09519 32759 ft 340 kts 238°
2026-05-07 19:05 41.95072 -73.12076 33364 ft 330 kts 238°
2026-05-07 19:06 41.93757 -73.14578 33717 ft 327 kts 238°
2026-05-07 19:06 41.91114 -73.19609 33996 ft 331 kts 238°
2026-05-07 19:06 41.89784 -73.22137 34169 ft 331 kts 238°
2026-05-07 19:07 41.87107 -73.27222 34399 ft 334 kts 238°
2026-05-07 19:07 41.85766 -73.29763 34556 ft 334 kts 238°
2026-05-07 19:07 41.84419 -73.32315 34660 ft 338 kts 238°
2026-05-07 19:08 41.81669 -73.37516 34779 ft 343 kts 238°
2026-05-07 19:08 41.80309 -73.40085 34899 ft 341 kts 238°
2026-05-07 19:08 41.78956 -73.42633 35426 ft 332 kts 237°
2026-05-07 19:09 41.76247 -73.47739 35510 ft 338 kts 237°
2026-05-07 19:09 41.74881 -73.50311 35627 ft 339 kts 237°
2026-05-07 19:09 41.73518 -73.52875 35746 ft 335 kts 237°
2026-05-07 19:10 41.72172 -73.55400 35855 ft 332 kts 237°
2026-05-07 19:10 41.70830 -73.57919 35857 ft 334 kts 237°
2026-05-07 19:10 41.68117 -73.63008 35864 ft 337 kts 237°
2026-05-07 19:11 41.65374 -73.68145 35877 ft 342 kts 237°
2026-05-07 19:11 41.62590 -73.73350 35876 ft 345 kts 237°
2026-05-07 19:12 41.59784 -73.78585 35862 ft 347 kts 237°
2026-05-07 19:12 41.56967 -73.83830 35851 ft 347 kts 237°
2026-05-07 19:13 41.54161 -73.89044 35858 ft 345 kts 237°
2026-05-07 19:13 41.51385 -73.94196 35858 ft 343 kts 237°
2026-05-07 19:14 41.48598 -73.99359 35824 ft 342 kts 237°
2026-05-07 19:14 41.45817 -74.04506 35880 ft 342 kts 237°
2026-05-07 19:15 41.43033 -74.09648 35878 ft 342 kts 237°
2026-05-07 19:15 41.40241 -74.14795 35873 ft 343 kts 237°
2026-05-07 19:16 41.37441 -74.19948 35872 ft 343 kts 237°
2026-05-07 19:16 41.34653 -74.25072 35872 ft 344 kts 237°
2026-05-07 19:17 41.31843 -74.30227 35813 ft 344 kts 237°
2026-05-07 19:17 41.29048 -74.35342 35868 ft 340 kts 237°
2026-05-07 19:18 41.26252 -74.40455 35899 ft 342 kts 237°
2026-05-07 19:18 41.23439 -74.45590 35891 ft 344 kts 237°
2026-05-07 19:19 41.20607 -74.50751 35881 ft 346 kts 237°
2026-05-07 19:19 41.17759 -74.55931 35875 ft 347 kts 237°
2026-05-07 19:20 41.14921 -74.61085 35827 ft 347 kts 237°
2026-05-07 19:20 41.12082 -74.66231 35868 ft 345 kts 237°
2026-05-07 19:21 41.09258 -74.71341 35875 ft 343 kts 237°
2026-05-07 19:21 41.06439 -74.76434 35877 ft 341 kts 237°
2026-05-07 19:22 41.03633 -74.81496 35887 ft 341 kts 237°
2026-05-07 19:22 41.00822 -74.86560 35888 ft 340 kts 237°
2026-05-07 19:23 40.98014 -74.91608 35839 ft 340 kts 237°
2026-05-07 19:23 40.95215 -74.96635 35878 ft 338 kts 237°
2026-05-07 19:24 40.92424 -75.01636 35876 ft 337 kts 237°
2026-05-07 19:24 40.89656 -75.06590 35923 ft 337 kts 237°
2026-05-07 19:25 40.86845 -75.11611 35880 ft 342 kts 237°
2026-05-07 19:25 40.83992 -75.16703 35883 ft 346 kts 237°
2026-05-07 19:26 40.81116 -75.21824 35832 ft 346 kts 237°
2026-05-07 19:26 40.78292 -75.26838 35872 ft 336 kts 237°
2026-05-07 19:27 40.75511 -75.31772 35870 ft 334 kts 237°
2026-05-07 19:27 40.72739 -75.36686 35869 ft 333 kts 237°
2026-05-07 19:28 40.69989 -75.41553 35868 ft 333 kts 237°
2026-05-07 19:28 40.67194 -75.46494 35877 ft 339 kts 237°
2026-05-07 19:29 40.64349 -75.51513 35814 ft 344 kts 237°
2026-05-07 19:29 40.61499 -75.56528 35867 ft 340 kts 237°
2026-05-07 19:30 40.58669 -75.61501 35885 ft 338 kts 237°
2026-05-07 19:30 40.55855 -75.66439 35882 ft 337 kts 237°
2026-05-07 19:31 40.53046 -75.71362 35895 ft 337 kts 237°
2026-05-07 19:31 40.50223 -75.76300 35884 ft 338 kts 237°
2026-05-07 19:32 40.47381 -75.81267 35895 ft 343 kts 237°
2026-05-07 19:32 40.44519 -75.86262 35868 ft 344 kts 237°
2026-05-07 19:33 40.41639 -75.91274 35886 ft 343 kts 237°
2026-05-07 19:33 40.38774 -75.96252 35875 ft 341 kts 237°
2026-05-07 19:34 40.36412 -76.00352 35876 ft 340 kts 237°
2026-05-07 19:34 40.34903 -76.02968 35880 ft 340 kts 237°
2026-05-07 19:35 40.33317 -76.05717 35880 ft 340 kts 237°
2026-05-07 19:35 40.30476 -76.10633 35890 ft 340 kts 237°
2026-05-07 19:36 40.27594 -76.15617 35185 ft 351 kts 237°
2026-05-07 19:36 40.26125 -76.18152 34676 ft 346 kts 237°
2026-05-07 19:36 40.24669 -76.20660 33925 ft 346 kts 237°
2026-05-07 19:37 40.23219 -76.23157 33097 ft 345 kts 237°
2026-05-07 19:37 40.21761 -76.25668 32280 ft 346 kts 237°
2026-05-07 19:37 40.20300 -76.28181 31445 ft 348 kts 237°
2026-05-07 19:37 40.18834 -76.30701 30596 ft 349 kts 237°
2026-05-07 19:38 40.17357 -76.33238 29733 ft 351 kts 236°
2026-05-07 19:38 40.15870 -76.35790 28759 ft 353 kts 236°
2026-05-07 19:38 40.14378 -76.38349 27837 ft 354 kts 236°
2026-05-07 19:38 40.12882 -76.40912 26919 ft 355 kts 236°
2026-05-07 19:39 40.11376 -76.43489 26188 ft 354 kts 236°
2026-05-07 19:39 40.09910 -76.45993 25484 ft 350 kts 236°
2026-05-07 19:39 40.08444 -76.48496 24860 ft 346 kts 236°
2026-05-07 19:39 40.06991 -76.50977 24278 ft 343 kts 236°
2026-05-07 19:40 40.05537 -76.53458 23617 ft 344 kts 236°
2026-05-07 19:40 40.04081 -76.55942 22891 ft 346 kts 236°
2026-05-07 19:40 40.02599 -76.58471 22215 ft 355 kts 236°
2026-05-07 19:40 40.01075 -76.61072 21539 ft 365 kts 236°
2026-05-07 19:41 39.99532 -76.63695 20851 ft 363 kts 236°
2026-05-07 19:41 39.98003 -76.66291 20205 ft 358 kts 235°
2026-05-07 19:41 39.96490 -76.68857 19554 ft 355 kts 235°
2026-05-07 19:41 39.94988 -76.71402 18933 ft 352 kts 235°
2026-05-07 19:42 39.93522 -76.73888 18310 ft 349 kts 235°
2026-05-07 19:42 39.92043 -76.76393 17616 ft 348 kts 235°
2026-05-07 19:42 39.90575 -76.78878 16965 ft 345 kts 235°
2026-05-07 19:42 39.89118 -76.81344 16325 ft 342 kts 235°
2026-05-07 19:43 39.87671 -76.83792 15701 ft 339 kts 234°
2026-05-07 19:43 39.86235 -76.86219 15094 ft 337 kts 234°
2026-05-07 19:43 39.84809 -76.88624 14512 ft 335 kts 234°
2026-05-07 19:43 39.83382 -76.91028 13881 ft 335 kts 234°
2026-05-07 19:44 39.82035 -76.93496 13097 ft 335 kts 240°
2026-05-07 19:44 39.80841 -76.96088 12440 ft 333 kts 241°
2026-05-07 19:44 39.79644 -76.98663 11845 ft 331 kts 241°
2026-05-07 19:44 39.78446 -77.01220 11266 ft 330 kts 241°
2026-05-07 19:45 39.77258 -77.03743 10944 ft 320 kts 241°
2026-05-07 19:45 39.76114 -77.06163 10770 ft 309 kts 242°
2026-05-07 19:45 39.75024 -77.08471 10636 ft 299 kts 242°
2026-05-07 19:45 39.73947 -77.10753 10501 ft 293 kts 242°
2026-05-07 19:46 39.72896 -77.12981 10401 ft 284 kts 242°
2026-05-07 19:46 39.71878 -77.15136 10282 ft 275 kts 242°
2026-05-07 19:46 39.70886 -77.17230 10164 ft 268 kts 243°
2026-05-07 19:46 39.69925 -77.19263 10046 ft 261 kts 243°
2026-05-07 19:47 39.68973 -77.21227 9936 ft 255 kts 238°
2026-05-07 19:47 39.67649 -77.22772 9899 ft 255 kts 220°
2026-05-07 19:47 39.66040 -77.23841 9618 ft 263 kts 211°
2026-05-07 19:47 39.64337 -77.24709 9405 ft 261 kts 208°
2026-05-07 19:48 39.62651 -77.25524 9215 ft 257 kts 207°
2026-05-07 19:48 39.61004 -77.26326 9031 ft 256 kts 207°
2026-05-07 19:48 39.59331 -77.27151 8895 ft 259 kts 207°
2026-05-07 19:48 39.57635 -77.27997 8720 ft 263 kts 207°
2026-05-07 19:49 39.55922 -77.28855 8526 ft 264 kts 207°
2026-05-07 19:49 39.54219 -77.29711 8324 ft 263 kts 207°
2026-05-07 19:49 39.52515 -77.30569 8155 ft 262 kts 207°
2026-05-07 19:49 39.50814 -77.31428 7965 ft 263 kts 206°
2026-05-07 19:50 39.49105 -77.32290 7794 ft 262 kts 206°
2026-05-07 19:50 39.47412 -77.33145 7666 ft 260 kts 206°
2026-05-07 19:50 39.45718 -77.34001 7514 ft 262 kts 205°
2026-05-07 19:50 39.44008 -77.34866 7327 ft 266 kts 205°
2026-05-07 19:51 39.42270 -77.35745 7122 ft 269 kts 205°
2026-05-07 19:51 39.40474 -77.36427 6851 ft 273 kts 187°
2026-05-07 19:51 39.38586 -77.36400 6652 ft 270 kts 180°
2026-05-07 19:51 39.36737 -77.36318 6382 ft 269 kts 180°
2026-05-07 19:52 39.34862 -77.36243 6120 ft 268 kts 180°
2026-05-07 19:52 39.32998 -77.36181 5851 ft 268 kts 180°
2026-05-07 19:52 39.31138 -77.36130 5594 ft 267 kts 180°
2026-05-07 19:52 39.29282 -77.36083 5334 ft 266 kts 180°
2026-05-07 19:53 39.27436 -77.36037 5087 ft 265 kts 180°
2026-05-07 19:53 39.25595 -77.35992 4885 ft 263 kts 180°
2026-05-07 19:53 39.23774 -77.35947 4690 ft 260 kts 180°
2026-05-07 19:53 39.21973 -77.35903 4508 ft 258 kts 180°
2026-05-07 19:54 39.20192 -77.35859 4342 ft 259 kts 180°
2026-05-07 19:54 39.18380 -77.35815 4167 ft 261 kts 180°
2026-05-07 19:54 39.16553 -77.35771 4043 ft 265 kts 180°
2026-05-07 19:54 39.14710 -77.35761 3961 ft 266 kts 181°
2026-05-07 19:55 39.12855 -77.35759 3906 ft 266 kts 180°
2026-05-07 19:55 39.11004 -77.35725 3842 ft 265 kts 179°
2026-05-07 19:55 39.09171 -77.35636 3773 ft 262 kts 178°
2026-05-07 19:55 39.07372 -77.35609 3695 ft 257 kts 182°
2026-05-07 19:56 39.05601 -77.35651 3650 ft 252 kts 182°
2026-05-07 19:56 39.03839 -77.35684 3629 ft 256 kts 181°
2026-05-07 19:56 39.02050 -77.35707 3588 ft 259 kts 181°
2026-05-07 19:56 39.00226 -77.35715 3572 ft 265 kts 181°
2026-05-07 19:57 38.98365 -77.35716 3491 ft 267 kts 181°
2026-05-07 19:57 38.96516 -77.35714 3463 ft 264 kts 181°
2026-05-07 19:57 38.94685 -77.35716 3409 ft 263 kts 181°
2026-05-07 19:57 38.92871 -77.35704 3325 ft 259 kts 180°
2026-05-07 19:58 38.91077 -77.35685 3278 ft 257 kts 181°
2026-05-07 19:58 38.89303 -77.35716 3214 ft 252 kts 182°
2026-05-07 19:58 38.87573 -77.35757 3185 ft 252 kts 182°
2026-05-07 19:58 38.85797 -77.35799 3157 ft 256 kts 182°
2026-05-07 19:59 38.84004 -77.35840 3114 ft 259 kts 181°
2026-05-07 19:59 38.82214 -77.35880 3060 ft 257 kts 181°
2026-05-07 19:59 38.80429 -77.35919 3022 ft 255 kts 181°
2026-05-07 19:59 38.78652 -77.35956 2986 ft 255 kts 181°
2026-05-07 20:00 38.76885 -77.35994 2933 ft 254 kts 181°
2026-05-07 20:00 38.75110 -77.36032 2909 ft 255 kts 181°
2026-05-07 20:00 38.73323 -77.36069 2853 ft 256 kts 182°
2026-05-07 20:00 38.71554 -77.36107 2777 ft 253 kts 182°
2026-05-07 20:01 38.69794 -77.36144 2755 ft 252 kts 181°
2026-05-07 20:01 38.68039 -77.36182 2711 ft 253 kts 182°
2026-05-07 20:01 38.66352 -77.36635 2616 ft 251 kts 211°
2026-05-07 20:01 38.65129 -77.38165 2601 ft 248 kts 243°
2026-05-07 20:02 38.64664 -77.40275 2575 ft 248 kts 271°
2026-05-07 20:02 38.65040 -77.42395 2532 ft 245 kts 300°
2026-05-07 20:02 38.66154 -77.43986 2477 ft 242 kts 329°
2026-05-07 20:02 38.67719 -77.44728 2429 ft 236 kts 351°
2026-05-07 20:03 38.69311 -77.44787 2331 ft 223 kts
2026-05-07 20:03 38.70817 -77.44677 2207 ft 210 kts
2026-05-07 20:03 38.72241 -77.44558 2091 ft 202 kts
2026-05-07 20:03 38.73617 -77.44448 2023 ft 200 kts
2026-05-07 20:04 38.75006 -77.44344 1995 ft 193 kts
2026-05-07 20:04 38.76286 -77.44254 1976 ft 181 kts
2026-05-07 20:04 38.77531 -77.44171 2000 ft 176 kts
2026-05-07 20:04 38.78742 -77.44093 2003 ft 175 kts
2026-05-07 20:05 38.79952 -77.43994 1977 ft 173 kts
2026-05-07 20:05 38.81130 -77.43857 1976 ft 168 kts
2026-05-07 20:05 38.82287 -77.43803 1975 ft 165 kts
2026-05-07 20:05 38.83415 -77.43779 1979 ft 159 kts
2026-05-07 20:06 38.84507 -77.43763 1847 ft 155 kts
2026-05-07 20:06 38.85575 -77.43747 1674 ft 154 kts
2026-05-07 20:06 38.86653 -77.43731 1456 ft 154 kts
2026-05-07 20:06 38.87715 -77.43715 1249 ft 151 kts
2026-05-07 20:07 38.88759 -77.43699 1046 ft 150 kts
2026-05-07 20:07 38.89811 -77.43683 838 ft 151 kts
2026-05-07 20:07 38.90843 -77.43668 630 ft 144 kts
2026-05-07 20:07 38.91835 -77.43650 455 ft 142 kts 360°
2026-05-07 20:08 38.92833 -77.43650 307 ft 141 kts
2026-05-07 20:08 38.93696 -77.43636 298 ft 103 kts
2026-05-07 20:08 38.94259 -77.43624 300 ft 59 kts
2026-05-07 20:08 38.94519 -77.43727 300 ft 29 kts 330°
2026-05-07 20:09 38.94675 -77.43831 301 ft 24 kts 344°
2026-05-07 20:09 38.94836 -77.43858 301 ft 23 kts 355°
2026-05-07 20:09 38.94993 -77.43862 300 ft 22 kts 359°
2026-05-07 20:10 38.95108 -77.44141 299 ft 21 kts 274°
2026-05-07 20:10 38.95108 -77.44324 299 ft 20 kts 269°
2026-05-07 20:10 38.95106 -77.44505 299 ft 20 kts 269°
2026-05-07 20:10 38.95106 -77.44665 299 ft 13 kts 270°
2026-05-07 20:11 38.95145 -77.44723 303 ft 6 kts
2026-05-07 20:11 38.95148 -77.44723 302 ft 0 kts